Location: Chuathbaluk
(61.5726°N, 159.2454°W)
Time: 07:27:54
(UTC+00:00)

NUDT-PHONESAT - Pass Details

Date: 26 January 2021
Orbit: 479 x 498 km, 97.4° (Epoch: 08 March)

Event Time Altitude Azimuth Distance (km) Brightness Sun altitude
Rises 04:47:58 0° 187° (S) 2,578 ? -16.2°
Reaches altitude 10° 04:50:09 10° 197° (SSW) 1,703 ? -16.4°
Maximum altitude 04:53:32 34° 263° (W) 843 ? -16.8°
Drops below altitude 10° 04:56:57 10° 331° (NNW) 1,722 ? -17.2°
Sets 04:59:11 0° 340° (NNW) 2,612 ? -17.5°
